NWS Regional Weather Roundup

000
ASUS41 KBGM 190410
RWRBGM

REGIONAL WEATHER ROUNDUP
NATIONAL WEATHER SERVICE BINGHAMTON NY
1200 AM EDT SAT OCT 19 2019

Note: "fair" indicates few or no clouds below 12,000 feet with no
significant weather and/or obstructions to visibility.

* = Station(s) that does not report precipitation, such as rain,
snow, etc, also no thunder or fog.

NYZ009-015>018-022>025-036-037-044>046-055>057-062-190500
...Central New York...

CITY           SKY/WX    TMP DP  RH WIND       PRES   REMARKS
Binghamton     FAIR      35  33  92 W5        30.03S WCI  31
Cortland       CLOUDY    32  32 100 CALM      30.05S
Dansville      FAIR      36  34  92 SE7       30.07S WCI  30
Elmira         FAIR      34  32  92 SW5       30.06S WCI  30
Endicott       PTCLDY    34  34 100 SW3       30.07S
Ithaca         NOT AVBL
Hamilton       CLOUDY    41  36  81 CALM      30.03R
Monticello     FAIR      38  32  79 CALM      30.03R
Norwich        CLOUDY    37  36  93 CALM      30.04S
Oneonta        PTCLDY    39  34  81 CALM      30.01S
Penn Yan       FAIR      39  37  92 SW6       30.06S WCI  35
Rome           CLOUDY    43  41  93 CALM      30.04S
Seneca Falls   CLOUDY    41  37  87 SW5       30.06S
Sidney         FOG       34  34 100 SW3       30.05S VSB 1/2
Skaneateles    CLOUDY    43  39  87 SW5       30.04S
Syracuse       CLOUDY    46  40  79 SW8       30.04R
$$

PAZ038>040-043-044-047-048-072-190500
...Northeast Pennsylvania...

CITY           SKY/WX    TMP DP  RH WIND       PRES   REMARKS
Scranton       NOT AVBL
Towanda        CLEAR     36  34  93 CALM      30.09S
$$
&&
KEY
WCI = Wind Chill Index
VSB = Visibility
HX  = Heat Index
$$

NWS BGM Office Regional Weather Roundup